Tracking 30995 objects as of 5-Jul-2025
HD Live streaming from Space Station
objects crossing your sky now

COSMOS 2251 DEB

Track COSMOS 2251 DEB now!
10-day predictions


NORAD ID: 37971
Int'l Code: 1993-036BPW
Perigee: 694.3 km
Apogee: 796.6 km
Inclination: 74.0 °
Period: 99.6 minutes
Semi major axis: 7116 km
RCS: 0.0089 m2 (small)
Launch date: June 16, 1993
Source: Commonwealth of Independent States (former USSR) (CIS)
Launch site: PLESETSK MISSILE AND SPACE COMPLEX (PKMTR)

Note: This is SATELLITE DEBRIS
Your satellite tracking list
Your tracking list is empty




NASA's NSSDC Master Catalog

Two Line Element Set (TLE):
1 37971U 93036BPW 25186.10952015  .00006353  00000-0  17285-2 0  9995
2 37971  73.9950 342.8450 0071872 152.5421 207.9565 14.46130687583542
Source of the keplerian elements: AFSPC